Regional Weather Roundup
Issued by NWS Goodland, KS

Home | Current Version | Previous Version | Text Only | Print | Product List | Glossary On
Versions: 1 2 3 4 5 6 7 8 9 10 11 12 13 14 15 16 17 18 19 20 21 22 23 24 25 26 27 28 29 30 31 32 33 34 35 36 37 38 39 40 41 42 43 44 45 46 47 48 49 50
000
ASUS43 KGLD 261559
RWRGLD

GOODLAND FORECAST AREA HOURLY WEATHER ROUNDUP
NATIONAL WEATHER SERVICE GOODLAND KS
900 AM MST WED NOV 26 2014

...OFFICIAL OBSERVATIONS...

CITY           SKY/WX    TMP DP  RH WIND       PRES   REMARKS
GOODLAND KS    CLOUDY    33  29  85 NW15      30.24R
HILL CITY KS   MOSUNNY   36  19  50 N25G37    30.22R
IMPERIAL NEB   CLOUDY    31  19  61 N15       30.25R
MCCOOK NEB     PTSUNNY   34  19  54 N24G30    30.24R
AKRON CO       CLOUDY    27  25  92 NW10      30.23R WCI  17
BURLINGTON CO  CLOUDY    30  26  85 NW17      30.24R WCI  18
LIMON CO       MOSUNNY   27  20  75 NW8       30.23R
$$

...UNOFFICIAL OBSERVATIONS...

CITY           SKY/WX    TMP DP  RH WIND       PRES   REMARKS
COLBY KS       CLOUDY    36  28  75 NW20G28   30.24R
GOVE KS          N/A     38  32  79 MISG        N/A
NORTON KS      MOSUNNY   36  18  48 NW25G32   30.21R
SHARON SPRINGS   N/A     35  29  78 N20         N/A
TRIBUNE KS     CLOUDY    37  30  75 NW17      30.27R
TRENTON NEB      N/A     31  32 100 N17         N/A  WCI  20
YUMA CO          N/A     28  26  94 NW10        N/A  WCI  19
$$


USA.gov is the U.S. government's official web portal to all federal, state and local government web resources and services.